Probability
0 0 0 0 0 0 0 0 0 0 0 0 0 0 0 0 0 0 0 0 0 0 0 0 0 3 3 6 6 3 3 6 3 0 0 0 0 0 0 0 0 0 0 0
0 0 0 0 0 0 0 0 0 0 0 0 0 0 0 0 0 0 0 0 0 0 0 0 0 3 3 3 6 6 3 3 0 0 0 0 0 0 0 0 0 0 0 0
0 0 0 0 0 0 0 0 0 0 0 0 0 0 0 0 0 0 0 0 0 0 0 0 0 3 3 3 3 6 3 3 0 0 0 0 0 0 0 0 0 0 0 0
0 0 0 0 0 0 0 0 0 0 0 0 0 0 0 0 0 0 0 0 0 0 0 0 3 3 3 3 3 3 6 0 0 0 0 0 0 0 0 0 0 0 0 0
0 0 0 0 0 0 0 0 0 0 0 0 0 0 0 0 0 0 0 0 0 0 0 0 0 0 0 0 3 0 0 0 0 0 0 0 0 0 0 0 0 0 0 0
0 0 0 0 0 0 0 0 0 0 0 0 0 0 0 0 0 0 0 0 0 0 0 0 0 0 0 0 0 0 0 0 0 0 0 0 0 0 0 0 0 0 0 0
0 0 0 0 0 0 0 0 0 0 0 0 0 0 0 0 0 0 0 0 0 0 0 0 0 0 0 0 0 0 0 0 0 0 0 0 0 0 0 0 0 0 0 0
0 0 0 0 0 0 0 0 0 0 0 0 0 0 0 0 0 0 0 0 0 0 0 0 0 0 0 0 0 0 0 0 0 0 0 0 0 0 0 0 0 0 0 0
0 0 0 0 0 0 0 0 0 0 0 0 0 0 0 0 0 0 0 0 0 0 0 0 0 0 0 0 0 0 0 0 0 0 0 0 0 0 0 0 0 0 0 0
0 0 0 0 0 0 0 0 0 0 0 0 0 0 0 0 0 0 0 0 0 0 0 0 0 0 0 0 0 0 0 0 0 0 0 0 0 0 0 0 0 0 0 0
0 0 0 0 0 0 0 0 0 0 0 0 0 0 0 0 0 0 0 0 0 0 0 0 0 0 0 0 0 0 0 0 0 0 0 0 0 0 0 0 0 0 0 0
0 0 0 0 0 0 0 0 0 0 0 0 0 0 0 0 0 0 0 0 0 0 0 0 0 0 0 0 0 0 0 0 0 0 0 0 0 0 0 0 0 0 0 0
0 0 0 0 0 0 0 0 0 0 0 0 0 0 0 0 0 0 0 0 0 0 0 0 0 0 0 0 0 0 0 0 0 0 0 0 0 0 0 0 0 0 0 0
0 0 0 0 0 0 0 0 0 0 0 0 0 0 0 0 0 0 0 0 0 0 0 0 0 0 0 0 0 0 0 0 0 0 0 0 0 0 0 0 0 0 0 0
0 0 0 0 0 0 0 0 0 0 0 0 0 0 0 0 0 0 0 0 0 0 0 0 0 0 0 0 0 0 0 0 0 0 0 0 0 0 0 0 0 0 0 0
0 0 0 0 0 0 0 0 0 0 0 0 0 0 0 0 0 0 0 0 0 0 0 0 0 0 0 0 0 0 0 0 0 0 0 0 0 0 0 0 0 0 0 0
0 0 0 0 0 0 0 0 0 0 0 0 0 0 0 0 0 0 0 0 0 0 0 0 0 0 0 0 0 0 0 0 0 0 0 0 0 0 0 0 0 0 0 0
0 0 0 0 0 0 0 0 0 0 0 0 0 0 0 0 0 0 0 0 0 0 0 0 0 0 0 0 0 0 0 0 0 0 0 0 0 0 0 0 0 0 0 0
0 0 0 0 0 0 0 0 0 0 0 0 0 0 0 0 0 0 0 0 0 0 0 0 0 0 0 0 0 0 0 0 0 0 0 0 0 0 0 0 0 0 0 0
0 0 0 0 0 0 0 0 0 0 0 0 0 0 0 0 0 0 0 0 0 0 0 0 0 0 0 0 0 0 0 0 0 0 0 0 0 0 0 0 0 0 0 0
0 0 0 0 0 0 0 0 0 0 0 0 0 0 0 0 0 0 0 0 0 0 0 0 0 0 0 0 0 0 0 0 0 0 0 0 0 0 0 0 0 0 0 0
0 0 0 0 0 0 0 0 0 0 0 0 0 0 0 0 0 0 0 0 0 0 0 0 0 0 0 0 0 0 0 0 0 0 0 0 0 0 0 0 0 0 0 0
0 0 0 0 0 0 0 0 0 0 0 0 0 0 0 0 0 0 0 0 0 0 0 0 0 0 0 0 0 0 0 0 0 0 0 0 0 0 0 0 0 0 0 0
0 0 0 0 0 0 0 0 0 0 0 0 0 0 0 0 0 0 0 0 0 0 0 0 0 0 0 0 0 0 0 0 0 0 0 0 0 0 0 0 0 0 0 0
0 0 0 0 0 0 0 0 0 0 0 0 0 0 0 0 0 0 0 0 0 0 0 0 0 0 0 0 0 0 0 0 0 0 0 0 0 0 0 0 0 0 0 0
0 0 0 0 0 0 0 0 0 0 0 0 0 0 0 0 0 0 0 0 0 0 0 0 0 0 0 0 0 0 0 0 0 0 0 0 0 0 0 0 0 0 0 0
Height
5651 5648 5644 5642 5640 5638 5636 5636 5637 5639 5639 5641 5643 5646 5650 5652 5656 5660 5664 5669 5674 5680 5685 5690 5694 5699 5705 5711 5716 5722 5728 5734 5739 5744 5750 5755 5761 5766 5771 5776 5781 5786 5790 5795
5646 5641 5638 5634 5632 5629 5628 5627 5628 5629 5629 5630 5632 5635 5638 5641 5645 5649 5653 5657 5663 5668 5673 5677 5681 5687 5692 5698 5704 5709 5716 5722 5728 5734 5739 5745 5750 5756 5761 5766 5771 5776 5781 5786
5639 5636 5630 5627 5624 5622 5620 5619 5619 5620 5620 5620 5622 5625 5628 5631 5634 5637 5641 5645 5650 5655 5660 5665 5670 5675 5680 5686 5692 5698 5704 5711 5717 5722 5728 5733 5739 5744 5750 5756 5762 5767 5772 5777
5632 5628 5624 5620 5617 5615 5613 5612 5611 5611 5611 5612 5613 5614 5619 5621 5624 5627 5630 5634 5639 5644 5649 5653 5658 5663 5669 5674 5679 5686 5692 5699 5705 5711 5717 5722 5729 5734 5740 5746 5752 5757 5763 5768
5625 5621 5616 5613 5610 5607 5606 5605 5604 5604 5603 5604 5604 5605 5610 5611 5614 5617 5620 5623 5628 5632 5637 5642 5647 5652 5657 5662 5668 5674 5680 5686 5693 5700 5706 5712 5718 5724 5730 5735 5741 5747 5753 5758
5618 5613 5609 5606 5603 5601 5599 5598 5597 5597 5596 5596 5597 5597 5600 5602 5604 5608 5611 5613 5617 5621 5626 5631 5636 5640 5645 5650 5656 5662 5669 5674 5681 5688 5694 5700 5707 5714 5719 5724 5731 5737 5742 5748
5612 5607 5602 5599 5597 5595 5593 5592 5590 5589 5588 5589 5590 5589 5592 5593 5596 5598 5601 5604 5607 5611 5615 5620 5624 5629 5633 5639 5644 5650 5656 5662 5669 5676 5682 5689 5696 5703 5709 5715 5720 5726 5732 5737
5605 5602 5597 5593 5590 5588 5586 5585 5585 5583 5581 5582 5582 5582 5584 5585 5587 5589 5592 5594 5597 5600 5604 5608 5613 5617 5622 5627 5633 5639 5644 5651 5657 5664 5671 5677 5683 5690 5698 5704 5710 5715 5721 5727
5599 5596 5591 5587 5585 5583 5580 5579 5578 5577 5575 5575 5575 5575 5577 5577 5579 5581 5582 5585 5587 5590 5593 5597 5601 5606 5611 5616 5621 5627 5633 5639 5646 5652 5658 5665 5671 5678 5686 5692 5698 5704 5710 5716
5594 5591 5587 5583 5580 5578 5576 5573 5572 5571 5569 5568 5568 5568 5570 5570 5571 5573 5574 5575 5577 5580 5584 5587 5591 5595 5599 5604 5610 5615 5621 5627 5633 5640 5646 5653 5660 5666 5673 5680 5687 5693 5699 5705
5589 5586 5583 5578 5575 5573 5571 5569 5566 5565 5563 5562 5561 5564 5563 5563 5564 5565 5565 5567 5569 5571 5574 5577 5580 5583 5588 5592 5597 5603 5609 5615 5622 5628 5634 5641 5648 5655 5661 5668 5675 5681 5688 5693
5584 5581 5578 5574 5571 5568 5565 5563 5561 5560 5558 5556 5555 5559 5556 5556 5556 5557 5558 5559 5560 5561 5564 5567 5570 5573 5576 5581 5586 5591 5597 5603 5610 5616 5622 5629 5636 5643 5649 5656 5663 5669 5676 5682
5580 5576 5573 5570 5569 5565 5561 5558 5556 5554 5552 5550 5549 5552 5549 5549 5549 5549 5550 5551 5551 5553 5554 5556 5559 5562 5565 5569 5574 5579 5585 5591 5597 5603 5610 5617 5624 5630 5637 5644 5651 5657 5663 5670
5575 5571 5568 5566 5561 5558 5556 5554 5551 5549 5547 5545 5544 5544 5543 5542 5542 5542 5542 5543 5543 5544 5545 5547 5549 5551 5555 5558 5562 5568 5573 5579 5584 5591 5597 5604 5612 5618 5625 5632 5638 5644 5651 5657
5570 5567 5563 5560 5556 5553 5551 5549 5546 5544 5541 5540 5539 5537 5537 5536 5535 5535 5534 5534 5534 5535 5536 5537 5539 5541 5544 5547 5551 5556 5561 5566 5572 5578 5585 5592 5599 5606 5613 5619 5626 5632 5639 5645
5565 5562 5559 5556 5552 5548 5546 5544 5541 5539 5536 5534 5532 5531 5530 5529 5528 5527 5526 5526 5526 5526 5527 5528 5529 5531 5534 5537 5540 5544 5549 5554 5560 5566 5573 5580 5587 5594 5600 5607 5614 5620 5626 5633
5560 5557 5553 5551 5547 5544 5542 5540 5536 5534 5531 5529 5526 5526 5524 5522 5521 5520 5519 5518 5517 5517 5517 5518 5519 5521 5524 5526 5529 5533 5537 5542 5548 5554 5561 5568 5575 5581 5588 5595 5601 5608 5614 5620
5556 5551 5548 5545 5542 5539 5539 5534 5531 5528 5526 5523 5520 5519 5517 5516 5514 5512 5511 5510 5509 5508 5508 5509 5510 5511 5513 5516 5519 5522 5526 5531 5536 5542 5548 5556 5563 5569 5576 5582 5589 5596 5602 5608
5550 5546 5542 5539 5535 5533 5532 5528 5525 5522 5520 5517 5514 5512 5510 5509 5508 5506 5504 5502 5501 5500 5500 5500 5500 5502 5504 5506 5509 5512 5516 5520 5525 5531 5537 5544 5550 5557 5564 5570 5577 5583 5589 5595
5545 5541 5538 5533 5529 5527 5527 5523 5518 5517 5514 5511 5508 5505 5503 5501 5501 5501 5497 5495 5494 5493 5492 5492 5492 5493 5494 5496 5498 5502 5506 5510 5515 5520 5526 5532 5539 5546 5553 5559 5565 5571 5577 5583
5539 5535 5532 5528 5524 5522 5520 5516 5513 5511 5509 5505 5501 5498 5496 5494 5494 5493 5490 5488 5487 5485 5484 5484 5484 5485 5486 5487 5489 5493 5496 5500 5505 5509 5515 5520 5527 5534 5541 5547 5553 5559 5565 5571
5533 5529 5526 5522 5518 5518 5513 5509 5507 5505 5501 5497 5494 5492 5489 5488 5486 5484 5482 5481 5479 5478 5477 5477 5477 5477 5478 5479 5481 5484 5488 5491 5495 5499 5504 5509 5515 5522 5528 5534 5540 5546 5553 5559
5527 5524 5519 5517 5515 5511 5506 5503 5500 5497 5494 5491 5488 5485 5483 5481 5479 5477 5476 5474 5473 5471 5471 5470 5470 5470 5471 5472 5473 5476 5478 5481 5485 5489 5493 5498 5504 5510 5516 5522 5528 5534 5540 5546
5521 5516 5513 5510 5507 5503 5499 5496 5493 5490 5487 5484 5481 5478 5476 5474 5472 5470 5469 5468 5466 5465 5464 5464 5463 5463 5464 5465 5466 5467 5469 5472 5475 5479 5483 5488 5494 5499 5505 5510 5516 5522 5528 5533
5514 5510 5506 5503 5500 5497 5493 5489 5486 5483 5480 5477 5474 5472 5469 5467 5465 5463 5462 5461 5460 5459 5458 5457 5456 5456 5457 5457 5458 5459 5461 5463 5466 5469 5473 5478 5483 5488 5494 5499 5505 5510 5516 5521
5507 5503 5500 5497 5493 5490 5486 5482 5479 5476 5473 5470 5468 5465 5463 5460 5458 5457 5455 5454 5453 5452 5451 5450 5449 5449 5449 5450 5450 5451 5452 5455 5457 5460 5464 5468 5473 5478 5483 5488 5494 5499 5505 5510
Wind_Speed
29 28 26 26 27 28 29 30 32 33 35 37 39 39 39 39 40 42 45 48 48 47 48 49 50 51 51 52 52 51 52 51 50 50 49 49 48 47 47 46 45 44 43 42
30 28 27 26 27 27 28 29 31 32 33 36 37 38 38 38 39 41 44 47 47 47 48 49 49 51 51 52 52 51 52 51 51 50 50 50 49 49 48 47 46 45 44 44
31 30 29 28 27 27 27 28 29 30 31 33 35 36 37 37 38 40 43 46 47 47 47 48 48 49 51 51 52 52 51 52 51 50 51 51 50 50 50 49 47 46 45 44
31 30 29 28 26 26 26 26 27 28 29 30 32 34 35 36 37 39 41 44 46 47 47 48 48 48 50 50 52 53 52 52 53 51 50 50 50 50 49 48 47 46 45 45
31 30 28 27 25 25 25 25 25 25 26 28 30 33 33 34 36 37 40 42 45 46 47 47 47 48 49 49 50 53 53 53 54 53 52 51 51 51 50 49 48 47 46 46
31 29 27 26 24 24 24 24 24 24 24 26 27 30 31 32 35 36 38 40 43 45 46 46 47 48 49 49 49 52 54 53 54 54 54 53 52 51 51 50 49 48 48 47
29 26 24 24 23 22 23 22 22 23 24 25 24 27 29 31 33 34 36 38 41 44 44 45 47 48 49 50 50 52 53 53 53 54 54 54 53 53 52 51 49 49 49 49
28 25 23 21 21 20 20 21 22 23 24 24 24 27 28 29 31 33 34 36 39 42 43 45 46 48 49 50 51 52 53 53 53 54 54 55 55 54 53 53 52 51 50 50
27 24 22 21 20 18 18 18 19 21 23 23 24 25 27 29 30 31 33 35 37 40 42 44 46 48 49 50 51 53 54 54 54 53 53 55 55 55 55 54 54 52 51 50
26 23 21 20 20 19 19 18 17 19 20 22 23 23 24 27 29 30 30 33 36 38 40 42 45 47 48 50 50 52 54 53 54 54 53 54 55 56 56 55 55 54 52 51
25 23 22 21 20 19 18 17 17 19 20 22 23 23 23 25 27 28 29 31 34 38 39 40 42 46 48 49 50 53 53 54 54 55 53 53 55 56 56 56 56 55 54 53
24 24 22 20 20 19 18 18 17 18 20 22 23 23 23 24 26 27 27 29 32 35 38 39 41 43 46 48 50 53 54 54 54 54 54 54 54 54 55 56 56 56 55 55
25 23 22 20 19 19 19 18 18 19 21 21 22 22 22 24 25 25 25 27 30 33 36 38 40 42 44 46 48 51 54 55 54 54 55 55 55 54 55 55 55 55 55 55
24 22 22 21 20 19 19 19 20 20 21 21 21 21 21 23 24 27 27 27 30 32 34 36 38 40 43 46 48 51 53 55 54 55 56 56 55 55 55 55 55 56 55 55
24 23 22 21 20 20 19 19 20 20 20 21 21 21 22 24 25 26 27 27 29 31 33 35 37 39 40 43 46 48 51 53 54 55 57 56 56 56 56 55 54 55 56 55
24 23 22 21 21 21 20 20 20 20 20 21 21 21 21 22 24 25 26 26 28 29 32 33 35 37 39 40 44 48 49 51 52 54 55 56 57 57 57 56 55 55 55 55
24 23 23 22 21 21 20 21 21 21 20 21 21 21 21 22 23 24 24 25 26 26 29 32 34 36 38 40 41 45 47 49 51 53 54 55 55 56 57 58 57 56 56 55
24 24 23 23 22 21 20 21 21 21 21 21 21 22 22 22 23 24 24 25 25 26 27 29 32 34 36 38 40 43 46 48 49 51 53 54 54 55 56 57 57 56 56 56
24 24 24 23 23 21 21 22 22 22 21 22 22 23 23 23 22 23 25 26 26 25 26 27 29 32 34 37 39 42 45 46 47 49 52 53 53 54 54 55 56 55 55 56
25 24 24 24 24 23 22 23 23 23 23 23 22 23 23 24 24 23 24 25 25 25 25 25 27 29 32 34 37 40 43 44 45 47 50 52 53 54 54 54 54 54 54 54
25 25 24 24 24 23 23 23 23 24 24 24 24 23 23 24 24 24 23 24 24 24 24 25 26 27 29 32 34 37 39 41 44 45 47 50 51 53 53 54 54 53 53 54
26 26 25 24 24 23 23 24 25 25 25 25 24 24 23 23 23 24 24 23 23 23 23 24 24 25 27 29 32 34 35 39 41 44 45 47 50 52 52 53 54 54 54 54
26 25 25 25 24 24 25 25 26 25 25 25 24 24 23 23 23 24 24 23 23 23 23 23 23 23 25 27 29 31 33 35 38 40 42 44 47 49 51 52 53 53 53 53
25 25 25 24 23 24 25 25 25 25 25 25 24 24 22 23 23 23 23 22 21 22 23 22 23 23 24 25 27 29 31 34 36 39 40 42 44 47 48 50 52 52 51 52
26 26 25 24 24 24 25 26 25 25 25 25 24 23 22 22 22 22 22 21 21 21 22 22 23 24 24 25 26 28 31 33 34 36 38 40 42 44 46 48 49 50 50 50
26 27 26 25 25 26 26 26 25 25 25 25 24 23 23 22 22 21 21 21 21 21 21 22 23 24 24 25 25 26 29 31 33 35 36 38 40 42 44 46 46 47 48 48
Wind_Direction
314 307 299 293 288 282 274 266 261 257 254 251 250 248 245 244 242 240 236 234 233 233 234 235 235 233 233 231 230 230 231 231 231 231 231 231 231 231 230 230 231 231 231 231
314 309 303 296 289 285 278 270 263 259 258 254 251 248 244 243 241 240 237 235 234 234 234 234 234 233 232 231 229 229 230 229 230 230 231 230 230 231 231 231 231 231 232 232
313 309 304 298 291 286 281 274 266 262 260 256 252 248 243 241 241 240 238 235 234 234 234 233 232 232 231 231 229 228 228 228 228 229 229 229 229 229 230 231 231 232 232 232
314 310 304 299 292 288 282 275 270 265 263 258 252 248 242 241 241 241 239 237 235 234 233 232 231 231 231 231 229 228 228 228 228 228 229 229 229 229 229 230 231 231 232 232
314 311 304 298 292 289 284 278 271 267 264 261 254 249 245 243 242 240 240 237 235 233 232 232 231 231 231 231 229 227 227 228 227 227 229 229 228 228 229 229 230 231 232 232
314 310 305 300 295 290 287 280 272 268 265 262 256 253 249 244 242 241 241 239 235 233 233 232 231 232 232 231 230 227 226 227 227 227 228 228 228 228 229 229 230 231 231 232
314 311 305 300 297 293 289 284 278 272 267 262 257 254 251 247 246 245 243 241 237 235 234 233 232 232 232 232 231 228 227 228 227 227 228 228 228 229 229 230 230 232 232 232
319 315 309 302 298 296 291 287 282 276 272 264 257 255 253 251 250 249 248 244 241 238 236 235 234 233 233 232 231 229 229 228 228 227 227 228 228 228 229 230 230 232 232 233
321 318 313 306 301 297 295 290 287 279 277 270 263 259 255 254 253 252 250 247 244 241 239 237 236 236 234 233 232 230 229 229 228 227 227 227 228 229 230 230 231 231 232 233
321 319 314 307 302 298 297 296 287 277 277 275 270 264 260 256 253 252 252 249 245 243 241 240 239 237 235 234 233 231 229 228 228 227 227 228 229 230 230 231 232 232 232 233
320 319 316 310 306 301 298 294 289 279 275 275 272 266 262 258 255 255 254 251 246 245 244 242 240 237 235 233 233 232 230 229 229 229 229 229 229 230 231 231 232 233 233 233
320 319 317 310 307 302 297 294 291 285 280 275 272 268 265 261 257 256 255 253 248 246 244 244 242 239 236 233 232 232 231 229 230 229 229 229 230 230 231 231 232 233 233 234
318 316 317 314 308 305 300 294 290 287 284 280 274 269 266 263 259 256 257 257 254 250 247 245 244 241 238 235 234 232 232 231 231 230 229 229 229 230 231 231 231 232 233 233
317 314 314 312 310 307 304 298 292 289 288 282 278 273 268 266 264 260 259 259 256 255 253 249 245 243 240 238 236 233 232 232 232 230 228 228 229 230 231 231 232 232 233 234
317 315 313 311 307 304 304 301 298 294 291 287 282 276 272 269 268 266 264 262 259 257 255 252 248 245 242 240 237 234 232 231 231 229 229 229 229 230 231 231 231 232 233 233
317 315 315 312 306 303 301 300 300 298 293 288 284 278 274 272 272 272 267 262 259 258 256 252 250 247 243 241 239 235 234 233 232 231 230 229 229 230 231 231 232 232 233 234
317 314 314 313 308 304 302 302 300 298 294 290 286 283 277 275 272 274 271 266 262 261 258 254 249 247 245 242 240 236 233 233 232 231 231 231 230 231 232 232 232 232 233 234
317 315 313 313 308 305 305 304 303 298 295 293 291 288 283 280 278 277 275 273 270 266 260 256 250 246 245 243 241 237 234 233 233 232 231 231 231 232 232 233 233 234 235 235
315 314 313 312 310 307 306 305 303 300 298 298 295 289 286 283 282 283 280 277 275 272 265 258 253 249 246 243 241 238 235 234 233 233 232 232 231 232 232 233 234 234 235 236
311 311 311 310 309 311 310 307 305 302 300 300 298 291 287 284 282 283 283 280 277 274 269 262 257 251 247 244 241 238 236 235 234 234 233 232 231 231 232 233 234 234 235 237
310 309 309 308 307 309 310 308 306 304 304 302 299 295 289 286 284 282 282 281 278 274 270 265 259 254 250 247 242 238 237 236 235 234 234 232 231 231 231 232 233 235 235 236
310 308 308 306 306 309 308 306 305 304 304 304 301 297 291 287 285 283 283 281 278 274 270 267 262 256 252 248 244 240 239 238 235 234 232 231 230 229 230 231 233 234 235 236
310 309 307 305 306 305 305 304 304 303 303 302 302 298 293 288 286 283 282 281 277 273 269 265 261 257 254 250 245 243 242 239 236 233 232 231 229 229 230 231 233 234 235 236
310 308 307 306 305 304 303 302 302 302 301 301 300 298 295 292 288 284 282 280 278 275 271 267 264 260 255 251 249 247 243 239 236 234 232 231 230 230 230 231 233 234 235 236
309 308 308 308 306 305 304 302 301 302 301 301 300 298 298 297 292 287 283 281 279 277 273 271 267 264 259 257 254 249 245 240 239 236 234 233 232 232 231 232 233 233 234 237
307 306 307 307 305 304 303 301 301 300 301 301 301 298 298 297 295 289 285 283 280 278 276 274 268 263 261 259 257 251 247 243 240 237 235 234 233 232 231 231 233 234 235 236